Weather History for Mammoth, CA

Change the Weather History Date:

Saturday, February 2, 2013

  Actual Average Record
Temperature  
Mean Temperature 32 °F -  
Max Temperature 42 °F 34 °F 55 °F (2009)
Min Temperature 21 °F 20 °F 5 °F (2011)
Degree Days  
Heating Degree Days 34    
Moisture  
Dew Point 20 °F    
Average Humidity 63    
Maximum Humidity 86    
Minimum Humidity 39    
Precipitation  
Precipitation 0.00 in - - ()
Sea Level Pressure  
Sea Level Pressure 30.36 in    
Wind  
Wind Speed 1 mph (ESE)    
Max Wind Speed 6 mph    
Max Gust Speed -    
Visibility 10 miles    
Events      
Averages and records for this station are not official NWS values.
T = Trace of Precipitation, MM = Missing Value Source: NWS Daily Summary

Daily Weather History Graph

Daily Weather History Graph

Search for Another Location

Airport:

Trip Planner

Search our weather history database for the weather conditions in past years. The results will help you decide how hot, cold, wet, or windy it might be!

Date:

Astronomy

Feb. 02, 2013 Rise Set
Actual Time 6:57 AM PST 5:20 PM PST
Civil Twilight 6:30 AM PST 5:48 PM PST
Nautical Twilight 5:59 AM PST 6:19 PM PST
Astronomical Twilight 5:28 AM PST 6:50 PM PST
Moon No Moon Rise 10:20 AM PST (2/2)
Length of Visible Light 11h 17m
Length of Day
10h 22m
Waning Gibbous, 58% of the Moon is Illuminated
Feb 2
Waning Gibbous
Feb 3
Last Quarter
Feb 9
New
Feb 17
First Quarter
Feb 25
Full

Hourly Weather History & Observations

Time (PST) Temp. Windchill Dew Point Humidity Pressure Visibility Wind Dir Wind Speed Gust Speed Precip Events Conditions
12:15 AM 26.6 °F - 14.0 °F 59% 30.38 in 10.0 mi Calm Calm - N/A   Clear
12:35 AM 24.8 °F - 14.0 °F 64% 30.38 in 10.0 mi Calm Calm - N/A   Clear
12:55 AM 26.6 °F 22.6 °F 14.0 °F 59% 30.38 in 10.0 mi NW 3.5 mph - N/A   Clear
1:15 AM 24.8 °F - 15.8 °F 69% 30.38 in 10.0 mi Calm Calm - N/A   Clear
1:35 AM 23.0 °F - 15.8 °F 74% 30.38 in 10.0 mi Calm Calm - N/A   Clear
1:55 AM 24.8 °F - 15.8 °F 69% 30.39 in 10.0 mi Calm Calm - N/A   Clear
2:15 AM 24.8 °F - 14.0 °F 64% 30.38 in 10.0 mi Calm Calm - N/A   Clear
2:35 AM 24.8 °F 19.1 °F 14.0 °F 64% 30.39 in 10.0 mi West 4.6 mph - N/A   Clear
2:55 AM 24.8 °F 20.5 °F 15.8 °F 69% 30.39 in 10.0 mi NNW 3.5 mph - N/A   Clear
3:15 AM 24.8 °F - 15.8 °F 69% 30.38 in 10.0 mi Calm Calm - N/A   Clear
3:35 AM 24.8 °F - 15.8 °F 69% 30.38 in 10.0 mi Calm Calm - N/A   Clear
3:55 AM 21.2 °F - 17.6 °F 86% 30.38 in 10.0 mi Calm Calm - N/A   Clear
4:15 AM 21.2 °F - 17.6 °F 86% 30.38 in 10.0 mi Calm Calm - N/A   Clear
4:35 AM 23.0 °F - 15.8 °F 74% 30.38 in 10.0 mi Calm Calm - N/A   Clear
4:55 AM 23.0 °F - 15.8 °F 74% 30.38 in 10.0 mi North - - N/A   Clear
5:15 AM 24.8 °F - 14.0 °F 64% 30.38 in 10.0 mi North - - N/A   Clear
5:35 AM 23.0 °F 18.4 °F 15.8 °F 74% 30.38 in 10.0 mi North 3.5 mph - N/A   Clear
5:55 AM 21.2 °F - 17.6 °F 86% 30.38 in 10.0 mi Calm Calm - N/A   Clear
6:15 AM 23.0 °F - 17.6 °F 80% 30.37 in 10.0 mi Calm Calm - N/A   Clear
6:35 AM 23.0 °F - 17.6 °F 80% 30.38 in 10.0 mi Calm Calm - N/A   Clear
6:55 AM 23.0 °F - 17.6 °F 80% 30.38 in 10.0 mi Calm Calm - N/A   Clear
7:15 AM 23.0 °F - 17.6 °F 80% 30.38 in 10.0 mi Calm Calm - N/A   Clear
7:35 AM 23.0 °F - 17.6 °F 80% 30.39 in 10.0 mi Calm Calm - N/A   Clear
7:55 AM 24.8 °F - 17.6 °F 74% 30.40 in 10.0 mi North - - N/A   Clear
8:15 AM 24.8 °F 20.5 °F 17.6 °F 74% 30.40 in 10.0 mi SE 3.5 mph - N/A   Clear
8:35 AM 26.6 °F - 19.4 °F 74% 30.41 in 10.0 mi North - - N/A   Clear
8:55 AM 28.4 °F - 21.2 °F 74% 30.41 in 10.0 mi North - - N/A   Clear
9:15 AM 30.2 °F - 21.2 °F 69% 30.41 in 10.0 mi Calm Calm - N/A   Clear
9:35 AM 30.2 °F - 19.4 °F 64% 30.41 in 10.0 mi Calm Calm - N/A   Scattered Clouds
9:55 AM 32.0 °F - 19.4 °F 60% 30.41 in 10.0 mi Calm Calm - N/A   Clear
10:15 AM 33.8 °F - 19.4 °F 56% 30.42 in 10.0 mi Calm Calm - N/A   Clear
10:35 AM 35.6 °F 32.8 °F 19.4 °F 52% 30.42 in 10.0 mi SE 3.5 mph - N/A   Clear
10:55 AM 35.6 °F - 21.2 °F 56% 30.41 in 10.0 mi Calm Calm - N/A   Clear
11:15 AM 35.6 °F - 21.2 °F 56% 30.40 in 10.0 mi Calm Calm - N/A   Clear
11:35 AM 37.4 °F - 21.2 °F 52% 30.40 in 10.0 mi Calm Calm - N/A   Scattered Clouds
12:15 PM 39.2 °F - 21.2 °F 49% 30.38 in 10.0 mi Calm Calm - N/A   Scattered Clouds
12:35 PM 39.2 °F 35.9 °F 23.0 °F 52% 30.37 in 10.0 mi SE 4.6 mph - N/A   Scattered Clouds
12:55 PM 39.2 °F - 23.0 °F 52% 30.36 in 10.0 mi Calm Calm - N/A   Scattered Clouds
1:15 PM 42.8 °F - 19.4 °F 39% 30.35 in 10.0 mi Calm Calm - N/A   Scattered Clouds
1:35 PM 41.0 °F 39.0 °F 21.2 °F 45% 30.35 in 10.0 mi ENE 3.5 mph - N/A   Mostly Cloudy
1:55 PM 41.0 °F 37.1 °F 23.0 °F 49% 30.34 in 10.0 mi SSE 5.8 mph - N/A   Mostly Cloudy
2:15 PM 41.0 °F - 21.2 °F 45% 30.33 in 10.0 mi Calm Calm - N/A   Scattered Clouds
2:35 PM 42.8 °F 40.1 °F 21.2 °F 42% 30.32 in 10.0 mi ESE 4.6 mph - N/A   Clear
2:55 PM 42.8 °F 41.1 °F 19.4 °F 39% 30.32 in 10.0 mi SE 3.5 mph - N/A   Scattered Clouds
3:15 PM 42.8 °F 41.1 °F 19.4 °F 39% 30.32 in 10.0 mi SE 3.5 mph - N/A   Scattered Clouds
3:35 PM 42.8 °F 40.1 °F 21.2 °F 42% 30.32 in 10.0 mi SSE 4.6 mph - N/A   Mostly Cloudy
3:55 PM 42.8 °F 41.1 °F 19.4 °F 39% 30.32 in 10.0 mi ESE 3.5 mph - N/A   Mostly Cloudy
4:15 PM 42.8 °F - 19.4 °F 39% 30.32 in 10.0 mi Calm Calm - N/A   Overcast
4:35 PM 41.0 °F - 21.2 °F 45% 30.33 in 10.0 mi Calm Calm - N/A   Overcast
4:55 PM 41.0 °F - 21.2 °F 45% 30.33 in 10.0 mi Calm Calm - N/A   Overcast
5:15 PM 39.2 °F - 24.8 °F 56% 30.33 in 10.0 mi Calm Calm - N/A   Overcast
5:35 PM 37.4 °F - 24.8 °F 60% 30.33 in 10.0 mi Calm Calm - N/A   Overcast
6:15 PM 35.6 °F - 24.8 °F 65% 30.34 in 10.0 mi North - - N/A   Overcast
6:35 PM 35.6 °F - 24.8 °F 65% 30.34 in 10.0 mi Calm Calm - N/A   Overcast
6:55 PM 35.6 °F - 26.6 °F 70% 30.34 in 10.0 mi Calm Calm - N/A   Overcast
7:15 PM 35.6 °F - 26.6 °F 70% 30.35 in 10.0 mi Calm Calm - N/A   Overcast
7:35 PM 35.6 °F - 24.8 °F 65% 30.34 in 10.0 mi Calm Calm - N/A   Overcast
7:55 PM 35.6 °F 32.8 °F 24.8 °F 65% 30.34 in 10.0 mi NE 3.5 mph - N/A   Overcast
8:15 PM 37.4 °F - 21.2 °F 52% 30.33 in 10.0 mi North - - N/A   Overcast
8:35 PM 35.6 °F - 23.0 °F 60% 30.33 in 10.0 mi Calm Calm - N/A   Overcast
8:55 PM 37.4 °F 34.9 °F 24.8 °F 60% 30.33 in 10.0 mi SSE 3.5 mph - N/A   Overcast
9:15 PM 35.6 °F - 24.8 °F 65% 30.33 in 10.0 mi Calm Calm - N/A   Overcast
9:35 PM 35.6 °F - 23.0 °F 60% 30.33 in 10.0 mi North - - N/A   Overcast
9:55 PM 35.6 °F - 23.0 °F 60% 30.32 in 10.0 mi Calm Calm - N/A   Overcast
10:15 PM 33.8 °F - 26.6 °F 75% 30.31 in 10.0 mi Calm Calm - N/A   Overcast
10:35 PM 33.8 °F - 24.8 °F 70% 30.31 in 10.0 mi Calm Calm - N/A   Scattered Clouds
10:55 PM 32.0 °F - 24.8 °F 75% 30.31 in 10.0 mi Calm Calm - N/A   Clear
11:15 PM 30.2 °F 26.7 °F 24.8 °F 80% 30.31 in 10.0 mi North 3.5 mph - N/A   Mostly Cloudy
11:35 PM 32.0 °F - 24.8 °F 75% 30.31 in 10.0 mi Calm Calm - N/A   Scattered Clouds
11:55 PM 32.0 °F - 24.8 °F 75% 30.30 in 10.0 mi Calm Calm - N/A   Mostly Cloudy